Content
SEND FEEDBACK

Daily
Averages
Monthly
Summary
Greece

ATHENS, GREECE


Home > Europe > Greece
Elevation: 69 feet     Latitude: 37 54N     Longitude: 023 44E

WEATHER
 
SELECT A DAY
Number of Records: 77,167;   Date Range: 4/14/01 - 9/15/14
 
SHARE

PRINT THIS DATA

[ ← Previous Day ]
WEATHER ALMANAC - NOVEMBER 9, 2013
[ Next Day → ]
[ °C ]   °F
Weather ElementAverageHighLow
Temperature59.3 °F69.8 °F (1:20 pm)50 °F (4:50 am)
Dewpoint50.1 °F53.6 °F (1:50 pm)42.8 °F (5:50 am)
Humidity72.6 %88 % (10:20 pm)52 % (12:50 pm)
Barometer30.09 in30.12 in (12:50 am)30.04 in (10:50 pm)
Wind Speed6.3 mph16.1 mph (9:20 am)
Weather ElementAverage
Wind DirectionESE (97.9 °)

Weather ElementTotal
Precipitation---
Heating Degree Days5.1 (Base 65)
Growing Degree Days9.9 (Base 50)
Averaged from 47 records on November 9, 2013
WEATHER CONDITIONS BREAKOUT
WIND DIRECTION BREAKOUT
WEATHER BY HOUR - NOVEMBER 9, 2013
[ °C ]   °F
Local TimeTemperatureDewpointHumidityBarometerVisibilityWind DirectionWind SpeedGust SpeedPrecipitationEventsConditions
12:50 AM53.6 °F48.2 °F82 %30.12 inWest (270°)3.5 mphClear
1:20 AM53.6 °F46.4 °F77 %30.12 inWest (280°)4.6 mphClear
1:50 AM51.8 °F46.4 °F82 %30.12 inVariable3.5 mphClear
2:20 AM51.8 °F46.4 °F82 %30.12 inWest (280°)4.6 mphClear
2:50 AM51.8 °F46.4 °F82 %30.12 inWNW (290°)5.8 mphClear
3:20 AM51.8 °F46.4 °F82 %30.12 inVariable2.3 mphClear
3:50 AM51.8 °F44.6 °F76 %30.12 inWNW (290°)2.3 mphClear
4:20 AM51.8 °F46.4 °F82 %30.12 inVariable3.5 mphClear
4:50 AM50.0 °F44.6 °F82 %30.12 inVariable2.3 mphClear
5:20 AM50.0 °F44.6 °F82 %30.12 inVariable1.2 mphClear
5:50 AM50.0 °F42.8 °F76 %30.12 inVariable1.2 mphClear
6:20 AM50.0 °F42.8 °F76 %30.12 inWest (260°)2.3 mphClear
6:50 AM51.8 °F44.6 °F76 %30.12 inVariable1.2 mphClear
7:20 AM57.2 °F50.0 °F77 %30.12 inNE (40°)6.9 mphClear
7:50 AM60.8 °F50.0 °F68 %30.12 inNNE (30°)9.2 mphClear
8:20 AM60.8 °F50.0 °F68 %30.12 inENE (70°)8.1 mphClear
8:50 AM62.6 °F50.0 °F63 %30.12 inNE (50°)15.0 mphClear
9:20 AM64.4 °F51.8 °F64 %30.12 inNE (50°)16.1 mphClear
9:50 AM64.4 °F51.8 °F64 %30.12 inNE (50°)16.1 mphClear
10:20 AM64.4 °F51.8 °F64 %30.12 inENE (60°)11.5 mphClear
10:50 AM66.2 °F51.8 °F60 %30.12 inENE (60°)11.5 mphClear
11:20 AM66.2 °F51.8 °F60 %30.09 inENE (60°)10.4 mphClear
11:50 AM66.2 °F51.8 °F60 %30.09 inNE (40°)11.5 mphClear
12:20 PM68.0 °F51.8 °F56 %30.09 inNE (40°)10.4 mphClear
12:50 PM68.0 °F50.0 °F52 %30.09 inNE (50°)9.2 mphClear
1:20 PM69.8 °F51.8 °F53 %30.06 inENE (60°)8.1 mphClear
1:50 PM69.8 °F53.6 °F56 %30.06 inENE (60°)9.2 mphClear
2:20 PM68.0 °F53.6 °F60 %30.06 inENE (60°)11.5 mphClear
2:50 PM68.0 °F53.6 °F60 %30.06 inNE (50°)12.7 mphClear
3:20 PM68.0 °F53.6 °F60 %30.06 inENE (60°)9.2 mphClear
3:50 PM66.2 °F53.6 °F64 %30.06 inNE (50°)10.4 mphClear
4:20 PM66.2 °F53.6 °F64 %30.06 inENE (60°)8.1 mphClear
4:50 PM64.4 °F53.6 °F68 %30.06 inENE (60°)6.9 mphClear
5:20 PM64.4 °F53.6 °F68 %30.06 inNE (50°)4.6 mphClear
5:50 PM62.6 °F53.6 °F72 %30.06 inNE (50°)4.6 mphClear
6:20 PM60.8 °F53.6 °F77 %30.06 inVariable2.3 mphClear
6:50 PM60.8 °F53.6 °F77 %30.06 inNNE (20°)5.8 mphClear
7:20 PM59.0 °F53.6 °F82 %30.06 inVariable3.5 mphClear
7:50 PM57.2 °F51.8 °F82 %30.06 inWNW (300°)3.5 mphClear
8:20 PM57.2 °F51.8 °F82 %30.06 inWest (260°)3.5 mphClear
8:50 PM57.2 °F51.8 °F82 %30.06 inVariable1.2 mphClear
9:20 PM55.4 °F50.0 °F82 %30.06 inWNW (300°)3.5 mphClear
9:50 PM55.4 °F50.0 °F82 %30.06 inNW (310°)3.5 mphClear
10:20 PM55.4 °F51.8 °F88 %30.06 inWNW (290°)2.3 mphClear
10:50 PM53.6 °F50.0 °F88 %30.04 inWNW (290°)3.5 mphClear
11:20 PM53.6 °F48.2 °F82 %30.04 inVariable1.2 mphClear
11:50 PM53.6 °F50.0 °F88 %30.04 inVariable1.2 mphClear
Hourly data recorded from LGAV, located miles away from Athens, Greece







STORIES FROM OUR PARTNERS